TimeCDT,TemperatureF,Dew PointF,Humidity,Sea Level PressureIn,VisibilityMPH,Wind Direction,Wind SpeedMPH,Gust SpeedMPH,PrecipitationIn,Events,Conditions,WindDirDegrees,DateUTC
12:15 AM,45.0,39.7,82,30.29,10.0,Calm,Calm,-,N/A,,Mostly Cloudy,0,2013-10-13 05:15:00
12:35 AM,45.9,39.4,78,30.29,10.0,Calm,Calm,-,N/A,,Mostly Cloudy,0,2013-10-13 05:35:00
12:55 AM,44.1,39.7,85,30.30,10.0,Calm,Calm,-,N/A,,Scattered Clouds,0,2013-10-13 05:55:00
1:15 AM,43.3,38.8,84,30.30,10.0,Calm,Calm,-,N/A,,Clear,0,2013-10-13 06:15:00
1:35 AM,42.8,38.3,84,30.31,10.0,Calm,Calm,-,N/A,,Scattered Clouds,0,2013-10-13 06:35:00
1:55 AM,43.0,38.8,85,30.32,10.0,Calm,Calm,-,N/A,,Scattered Clouds,0,2013-10-13 06:55:00
2:15 AM,44.2,39.7,84,30.32,10.0,Calm,Calm,-,N/A,,Mostly Cloudy,0,2013-10-13 07:15:00
2:35 AM,44.4,40.3,85,30.32,10.0,Calm,Calm,-,N/A,,Mostly Cloudy,0,2013-10-13 07:35:00
2:55 AM,44.1,40.3,87,30.33,10.0,Calm,Calm,-,N/A,,Mostly Cloudy,0,2013-10-13 07:55:00
3:15 AM,43.9,39.7,85,30.32,10.0,Calm,Calm,-,N/A,,Mostly Cloudy,0,2013-10-13 08:15:00
3:35 AM,43.0,39.2,86,30.32,10.0,Calm,Calm,-,N/A,,Mostly Cloudy,0,2013-10-13 08:35:00
3:55 AM,44.1,39.7,85,30.32,10.0,Calm,Calm,-,N/A,,Scattered Clouds,0,2013-10-13 08:55:00
4:15 AM,42.1,38.5,87,30.32,10.0,Calm,Calm,-,N/A,,Clear,0,2013-10-13 09:15:00
4:35 AM,41.9,37.8,85,30.32,10.0,Calm,Calm,-,N/A,,Clear,0,2013-10-13 09:35:00
4:55 AM,41.2,37.8,88,30.32,10.0,Calm,Calm,-,N/A,,Clear,0,2013-10-13 09:55:00
5:15 AM,41.0,36.9,85,30.32,10.0,Calm,Calm,-,N/A,,Clear,0,2013-10-13 10:15:00
5:35 AM,40.6,36.3,85,30.33,10.0,Calm,Calm,-,N/A,,Clear,0,2013-10-13 10:35:00
5:55 AM,40.1,35.8,85,30.33,10.0,Calm,Calm,-,N/A,,Clear,0,2013-10-13 10:55:00
6:15 AM,40.1,36.0,85,30.34,10.0,Calm,Calm,-,N/A,,Clear,0,2013-10-13 11:15:00
6:35 AM,38.8,34.7,85,30.34,10.0,Calm,Calm,-,N/A,,Clear,0,2013-10-13 11:35:00
6:55 AM,39.2,35.6,87,30.34,10.0,Calm,Calm,-,N/A,,Clear,0,2013-10-13 11:55:00
7:15 AM,39.7,35.8,86,30.35,10.0,Calm,Calm,-,N/A,,Clear,0,2013-10-13 12:15:00
7:35 AM,39.0,34.2,83,30.35,10.0,Calm,Calm,-,N/A,,Clear,0,2013-10-13 12:35:00
7:55 AM,37.8,34.2,87,30.36,10.0,Calm,Calm,-,N/A,,Clear,0,2013-10-13 12:55:00
8:15 AM,38.7,34.3,84,30.37,10.0,Calm,Calm,-,N/A,,Clear,0,2013-10-13 13:15:00
8:35 AM,41.2,37.2,86,30.38,10.0,Calm,Calm,-,N/A,,Clear,0,2013-10-13 13:35:00
8:55 AM,44.6,38.1,78,30.38,10.0,Calm,Calm,-,N/A,,Clear,0,2013-10-13 13:55:00
9:15 AM,47.5,38.3,70,30.39,10.0,Calm,Calm,-,N/A,,Clear,0,2013-10-13 14:15:00
9:35 AM,51.4,39.6,64,30.39,10.0,ESE,5.8,-,N/A,,Clear,110,2013-10-13 14:35:00
9:55 AM,55.8,34.3,44,30.39,3.0,ESE,9.2,-,N/A,,Haze,120,2013-10-13 14:55:00
10:15 AM,58.1,32.5,38,30.39,7.0,ESE,9.2,-,N/A,,Clear,120,2013-10-13 15:15:00
10:55 AM,62.6,28.4,27,30.39,2.5,SE,15.0,-,N/A,,Haze,130,2013-10-13 15:55:00
11:15 AM,63.9,26.8,25,30.39,2.5,ESE,15.0,20.7,N/A,,Haze,120,2013-10-13 16:15:00
11:35 AM,65.1,27.9,25,30.39,3.0,SE,13.8,19.6,N/A,,Haze,130,2013-10-13 16:35:00
11:55 AM,66.2,27.5,23,30.39,3.0,SE,15.0,18.4,N/A,,Haze,140,2013-10-13 16:55:00
12:15 PM,67.3,27.3,22,30.38,3.0,SSE,17.3,-,N/A,,Haze,150,2013-10-13 17:15:00
12:35 PM,67.6,27.9,23,30.37,10.0,SE,16.1,19.6,N/A,,Clear,140,2013-10-13 17:35:00
12:55 PM,68.4,26.6,21,30.37,10.0,SSE,17.3,21.9,N/A,,Clear,160,2013-10-13 17:55:00
1:15 PM,68.9,26.1,20,30.36,10.0,SE,16.1,24.2,N/A,,Clear,130,2013-10-13 18:15:00
1:35 PM,69.8,27.7,21,30.34,10.0,SSE,15.0,18.4,N/A,,Clear,150,2013-10-13 18:35:00
1:55 PM,70.5,26.8,20,30.33,10.0,SSE,17.3,21.9,N/A,,Clear,150,2013-10-13 18:55:00
2:15 PM,70.5,27.3,20,30.32,10.0,SE,11.5,21.9,N/A,,Clear,130,2013-10-13 19:15:00
2:35 PM,70.7,26.8,19,30.31,10.0,SE,13.8,-,N/A,,Clear,140,2013-10-13 19:35:00
2:55 PM,71.6,27.1,19,30.30,10.0,SSE,13.8,20.7,N/A,,Clear,150,2013-10-13 19:55:00
3:15 PM,71.4,27.5,19,30.29,10.0,SE,13.8,-,N/A,,Clear,130,2013-10-13 20:15:00
3:35 PM,71.6,25.3,18,30.28,10.0,SE,16.1,-,N/A,,Clear,140,2013-10-13 20:35:00
3:55 PM,71.1,25.7,18,30.27,10.0,SE,15.0,-,N/A,,Clear,130,2013-10-13 20:55:00
4:15 PM,71.2,25.7,18,30.26,10.0,SE,18.4,-,N/A,,Clear,130,2013-10-13 21:15:00
4:35 PM,71.2,26.6,19,30.26,10.0,SE,17.3,23.0,N/A,,Clear,130,2013-10-13 21:35:00
4:55 PM,70.5,27.9,20,30.25,10.0,ESE,15.0,20.7,N/A,,Clear,120,2013-10-13 21:55:00
5:15 PM,70.3,28.4,21,30.25,10.0,ESE,12.7,-,N/A,,Clear,120,2013-10-13 22:15:00
5:35 PM,69.4,27.9,21,30.25,10.0,SE,16.1,23.0,N/A,,Clear,130,2013-10-13 22:35:00
5:55 PM,68.7,28.4,22,30.25,10.0,SE,15.0,-,N/A,,Clear,130,2013-10-13 22:55:00
6:15 PM,68.0,28.4,23,30.25,10.0,SE,10.4,18.4,N/A,,Clear,130,2013-10-13 23:15:00
6:35 PM,66.2,29.5,25,30.25,10.0,SE,8.1,-,N/A,,Clear,130,2013-10-13 23:35:00
6:55 PM,64.4,31.1,29,30.24,10.0,ESE,6.9,-,N/A,,Clear,120,2013-10-13 23:55:00
7:15 PM,61.9,32.0,33,30.25,10.0,ESE,6.9,-,N/A,,Clear,120,2013-10-14 00:15:00
7:35 PM,60.1,32.9,36,30.25,10.0,ESE,5.8,-,N/A,,Clear,110,2013-10-14 00:35:00
7:55 PM,59.2,33.8,38,30.24,10.0,ESE,6.9,-,N/A,,Clear,120,2013-10-14 00:55:00
8:15 PM,57.6,34.7,42,30.25,10.0,ESE,5.8,-,N/A,,Clear,120,2013-10-14 01:15:00
8:35 PM,57.9,34.9,42,30.26,10.0,ESE,5.8,-,N/A,,Scattered Clouds,120,2013-10-14 01:35:00
8:55 PM,58.6,35.8,42,30.26,10.0,ESE,5.8,-,N/A,,Overcast,110,2013-10-14 01:55:00
9:15 PM,59.5,35.4,41,30.26,10.0,ESE,8.1,-,N/A,,Overcast,120,2013-10-14 02:15:00
9:35 PM,59.9,35.2,40,30.26,10.0,SE,8.1,-,N/A,,Mostly Cloudy,130,2013-10-14 02:35:00
9:55 PM,60.8,34.9,38,30.26,10.0,SE,9.2,-,N/A,,Overcast,130,2013-10-14 02:55:00
10:15 PM,60.4,35.1,39,30.27,10.0,SE,11.5,-,N/A,,Mostly Cloudy,130,2013-10-14 03:15:00
10:35 PM,60.6,35.6,39,30.27,10.0,SE,11.5,16.1,N/A,,Overcast,140,2013-10-14 03:35:00
10:45 PM,78.8,68.0,69,29.96,15.0,Variable,4.6,-,N/A,,Scattered Clouds,0,2013-10-14 03:45:00
10:55 PM,61.0,35.1,38,30.26,10.0,SE,13.8,18.4,N/A,,Overcast,130,2013-10-14 03:55:00
11:15 PM,61.0,34.7,37,30.25,10.0,SE,11.5,-,N/A,,Mostly Cloudy,130,2013-10-14 04:15:00
11:35 PM,60.8,34.7,38,30.24,10.0,SE,12.7,18.4,N/A,,Mostly Cloudy,140,2013-10-14 04:35:00
11:55 PM,59.9,34.3,38,30.22,10.0,SE,13.8,-,N/A,,Scattered Clouds,130,2013-10-14 04:55:00